Terminal Aerodrome Forecast
Issued by NWS Hastings, NE

Home | Current Version | Previous Version | Text Only | Print | Product List | Glossary On
Versions: 1 2 3 4 5 6 7 8 9 10 11 12 13 14 15 16 17 18 19 20
000
FTUS45 KGID 251720
TAFEAR
TAF
KEAR 251720Z 2518/2618 34017G25KT P6SM BKN030
     FM252100 34010KT P6SM SCT030
     FM260000 VRB04KT P6SM SCT100
     FM260600 22008KT P6SM BKN100
     FM261500 32016G25KT P6SM SCT250
      AMD LTD TO CLD VIS AND WIND=

USA.gov is the U.S. government's official web portal to all federal, state and local government web resources and services.